QPF
0.05 0.05 0.03 0.03 0.03 0.02 0.02 0.02 0.02 0.03 0.02 0.02 0.02 0.02 0.03 0.03 0.02 0.02 0.02 0.02 0.03 0.04 0.03 0.03 0.03 0.03 0.05 0.06 0.06 0.08 0.11 0.12 0.08 0.06 0.07 0.09 0.10 0.09
0.03 0.02 0.02 0.01 0.01 0.01 0.01 0.01 0.02 0.03 0.03 0.02 0.02 0.01 0.02 0.02 0.03 0.02 0.02 0.03 0.02 0.04 0.03 0.03 0.02 0.01 0.02 0.03 0.04 0.06 0.07 0.10 0.12 0.09 0.07 0.07 0.08 0.08
0.03 0.02 0.02 0.01 0.01 0.01 0.01 0.01 0.02 0.02 0.02 0.01 0.01 0.01 0.01 0.02 0.03 0.03 0.03 0.03 0.02 0.03 0.04 0.04 0.02 0.02 0.03 0.02 0.02 0.03 0.06 0.08 0.09 0.10 0.10 0.10 0.11 0.12
0.02 0.02 0.02 0.01 0.01 0.01 0.01 0.01 0.01 0.02 0.01 0.01 0.01 0.01 0.01 0.01 0.02 0.02 0.01 0.02 0.02 0.03 0.04 0.05 0.03 0.02 0.03 0.04 0.04 0.04 0.03 0.05 0.09 0.11 0.11 0.12 0.13 0.14
0.01 0.01 0.02 0.02 0.02 0.01 0.01 0.01 0.01 0.01 0.01 0.01 0.01 0.01 0.00 0.01 0.01 0.01 0.01 0.02 0.01 0.02 0.03 0.05 0.04 0.01 0.01 0.02 0.03 0.05 0.05 0.04 0.04 0.06 0.10 0.12 0.12 0.13
0.01 0.01 0.01 0.02 0.02 0.02 0.01 0.01 0.01 0.01 0.01 0.01 0.01 0.01 0.01 0.01 0.01 0.01 0.01 0.01 0.01 0.02 0.03 0.04 0.06 0.02 0.01 0.01 0.01 0.02 0.04 0.06 0.05 0.05 0.06 0.09 0.09 0.09
0.02 0.01 0.01 0.01 0.01 0.01 0.01 0.01 0.01 0.01 0.01 0.01 0.01 0.01 0.01 0.01 0.01 0.01 0.02 0.02 0.02 0.02 0.04 0.04 0.07 0.06 0.02 0.01 0.01 0.01 0.01 0.02 0.04 0.05 0.06 0.07 0.09 0.09
0.02 0.02 0.01 0.00 0.01 0.01 0.01 0.01 0.01 0.01 0.01 0.01 0.01 0.02 0.02 0.01 0.02 0.02 0.02 0.03 0.02 0.02 0.04 0.04 0.05 0.09 0.05 0.02 0.02 0.01 0.01 0.01 0.02 0.02 0.03 0.04 0.07 0.09
0.03 0.02 0.02 0.01 0.01 0.01 0.01 0.00 0.00 0.00 0.00 0.00 0.01 0.01 0.02 0.02 0.02 0.02 0.02 0.03 0.03 0.03 0.04 0.04 0.04 0.06 0.08 0.04 0.02 0.01 0.01 0.01 0.01 0.02 0.03 0.03 0.04 0.04
0.03 0.03 0.03 0.03 0.02 0.01 0.01 0.01 0.00 0.00 0.00 0.00 0.00 0.01 0.01 0.02 0.02 0.02 0.03 0.04 0.04 0.03 0.03 0.04 0.04 0.03 0.05 0.07 0.04 0.02 0.01 0.01 0.01 0.01 0.02 0.02 0.03 0.03
0.02 0.02 0.02 0.03 0.03 0.02 0.02 0.02 0.01 0.01 0.00 0.00 0.00 0.00 0.00 0.00 0.01 0.02 0.03 0.03 0.04 0.03 0.03 0.03 0.03 0.03 0.03 0.05 0.06 0.05 0.03 0.01 0.01 0.01 0.01 0.01 0.01 0.02
0.02 0.02 0.01 0.01 0.02 0.02 0.02 0.02 0.01 0.01 0.01 0.00 0.00 0.00 0.00 0.00 0.00 0.01 0.03 0.03 0.03 0.03 0.02 0.02 0.02 0.03 0.03 0.04 0.05 0.06 0.07 0.05 0.02 0.01 0.01 0.01 0.01 0.01
0.02 0.02 0.02 0.01 0.01 0.01 0.01 0.01 0.01 0.01 0.02 0.01 0.01 0.01 0.01 0.01 0.01 0.01 0.02 0.03 0.03 0.02 0.01 0.02 0.02 0.02 0.03 0.02 0.03 0.05 0.07 0.07 0.04 0.01 0.01 0.01 0.01 0.01
0.02 0.03 0.02 0.02 0.02 0.01 0.01 0.01 0.01 0.02 0.02 0.02 0.01 0.01 0.01 0.00 0.01 0.01 0.01 0.03 0.04 0.04 0.02 0.02 0.02 0.02 0.02 0.02 0.02 0.04 0.07 0.08 0.06 0.02 0.01 0.01 0.01 0.02
0.03 0.03 0.03 0.03 0.03 0.02 0.02 0.03 0.03 0.02 0.02 0.02 0.01 0.01 0.01 0.01 0.01 0.02 0.02 0.03 0.04 0.04 0.03 0.02 0.02 0.02 0.03 0.02 0.02 0.02 0.05 0.08 0.08 0.05 0.02 0.01 0.01 0.02
0.03 0.03 0.02 0.03 0.03 0.03 0.04 0.04 0.03 0.02 0.01 0.01 0.01 0.01 0.02 0.02 0.02 0.02 0.03 0.03 0.03 0.03 0.03 0.02 0.02 0.02 0.02 0.02 0.02 0.02 0.03 0.06 0.08 0.07 0.03 0.02 0.01 0.02
0.03 0.03 0.03 0.02 0.01 0.02 0.03 0.05 0.05 0.04 0.03 0.02 0.02 0.02 0.03 0.03 0.03 0.03 0.03 0.03 0.03 0.02 0.02 0.02 0.02 0.02 0.02 0.02 0.02 0.02 0.02 0.03 0.05 0.07 0.06 0.04 0.03 0.02
0.03 0.02 0.02 0.02 0.02 0.03 0.05 0.06 0.04 0.04 0.04 0.04 0.03 0.03 0.03 0.03 0.04 0.04 0.03 0.03 0.03 0.02 0.02 0.03 0.03 0.02 0.02 0.03 0.03 0.02 0.02 0.03 0.03 0.03 0.04 0.04 0.04 0.03
0.03 0.02 0.03 0.03 0.03 0.02 0.03 0.03 0.03 0.03 0.04 0.04 0.03 0.02 0.03 0.04 0.05 0.05 0.05 0.05 0.05 0.05 0.04 0.04 0.03 0.03 0.03 0.03 0.03 0.03 0.03 0.03 0.02 0.02 0.02 0.02 0.02 0.01
0.03 0.02 0.02 0.03 0.02 0.02 0.02 0.02 0.03 0.03 0.04 0.03 0.03 0.03 0.04 0.05 0.06 0.06 0.06 0.06 0.07 0.07 0.07 0.06 0.05 0.04 0.03 0.03 0.03 0.03 0.03 0.03 0.02 0.02 0.02 0.02 0.01 0.01
0.02 0.01 0.02 0.02 0.02 0.02 0.02 0.03 0.03 0.04 0.03 0.03 0.04 0.05 0.06 0.06 0.06 0.06 0.06 0.06 0.06 0.06 0.06 0.06 0.06 0.05 0.05 0.05 0.05 0.04 0.04 0.03 0.03 0.02 0.02 0.02 0.02 0.02
0.02 0.02 0.02 0.03 0.03 0.04 0.03 0.03 0.04 0.04 0.05 0.06 0.07 0.07 0.07 0.07 0.06 0.06 0.07 0.08 0.07 0.06 0.05 0.05 0.05 0.05 0.05 0.05 0.05 0.04 0.04 0.03 0.03 0.02 0.02 0.02 0.02 0.02
0.02 0.03 0.04 0.04 0.04 0.04 0.05 0.04 0.04 0.05 0.06 0.07 0.07 0.06 0.05 0.05 0.04 0.04 0.05 0.04 0.05 0.06 0.06 0.07 0.06 0.06 0.05 0.05 0.04 0.04 0.04 0.04 0.03 0.03 0.03 0.03 0.03 0.03
MSLP
1015.42 1015.58 1015.79 1016.07 1016.42 1016.84 1017.32 1017.83 1018.36 1018.90 1019.42 1019.91 1020.38 1020.81 1021.21 1021.58 1021.92 1022.23 1022.51 1022.76 1022.99 1023.18 1023.34 1023.45 1023.51 1023.51 1023.46 1023.34 1023.18 1022.98 1022.75 1022.51 1022.26 1022.02 1021.80 1021.60 1021.40 1021.21
1015.26 1015.38 1015.54 1015.76 1016.06 1016.44 1016.88 1017.38 1017.92 1018.48 1019.04 1019.58 1020.09 1020.57 1021.01 1021.41 1021.78 1022.11 1022.42 1022.70 1022.95 1023.18 1023.38 1023.54 1023.65 1023.71 1023.71 1023.65 1023.52 1023.35 1023.13 1022.88 1022.62 1022.36 1022.11 1021.87 1021.66 1021.46
1015.06 1015.18 1015.32 1015.51 1015.78 1016.12 1016.54 1017.03 1017.56 1018.13 1018.70 1019.26 1019.80 1020.29 1020.75 1021.15 1021.52 1021.86 1022.16 1022.45 1022.72 1022.98 1023.21 1023.42 1023.60 1023.73 1023.80 1023.81 1023.75 1023.62 1023.44 1023.21 1022.95 1022.68 1022.41 1022.14 1021.91 1021.69
1014.82 1014.95 1015.10 1015.29 1015.55 1015.88 1016.29 1016.76 1017.29 1017.86 1018.43 1018.99 1019.52 1020.01 1020.45 1020.84 1021.19 1021.50 1021.79 1022.06 1022.34 1022.61 1022.87 1023.13 1023.37 1023.57 1023.73 1023.82 1023.85 1023.80 1023.68 1023.50 1023.27 1023.00 1022.72 1022.44 1022.19 1021.95
1014.50 1014.68 1014.86 1015.07 1015.33 1015.67 1016.08 1016.56 1017.08 1017.64 1018.20 1018.75 1019.27 1019.74 1020.15 1020.51 1020.82 1021.10 1021.36 1021.61 1021.87 1022.13 1022.42 1022.71 1023.00 1023.27 1023.51 1023.70 1023.82 1023.86 1023.83 1023.72 1023.55 1023.32 1023.06 1022.79 1022.52 1022.27
1014.11 1014.33 1014.55 1014.81 1015.10 1015.46 1015.88 1016.36 1016.88 1017.44 1017.99 1018.53 1019.03 1019.48 1019.86 1020.19 1020.47 1020.71 1020.93 1021.15 1021.38 1021.64 1021.92 1022.23 1022.56 1022.89 1023.19 1023.47 1023.68 1023.83 1023.89 1023.87 1023.78 1023.62 1023.41 1023.16 1022.91 1022.66
1013.62 1013.91 1014.18 1014.48 1014.81 1015.20 1015.64 1016.13 1016.65 1017.21 1017.76 1018.29 1018.78 1019.22 1019.59 1019.90 1020.16 1020.37 1020.56 1020.76 1020.96 1021.19 1021.47 1021.77 1022.11 1022.47 1022.83 1023.17 1023.46 1023.70 1023.86 1023.94 1023.94 1023.87 1023.72 1023.53 1023.31 1023.09
1013.07 1013.41 1013.74 1014.08 1014.45 1014.86 1015.32 1015.82 1016.36 1016.91 1017.47 1018.01 1018.50 1018.94 1019.32 1019.63 1019.89 1020.10 1020.28 1020.46 1020.64 1020.85 1021.10 1021.39 1021.72 1022.08 1022.46 1022.84 1023.19 1023.49 1023.74 1023.91 1024.00 1024.02 1023.96 1023.84 1023.68 1023.49
1012.47 1012.86 1013.24 1013.62 1014.03 1014.46 1014.94 1015.44 1015.99 1016.55 1017.11 1017.66 1018.17 1018.64 1019.04 1019.38 1019.66 1019.90 1020.09 1020.26 1020.44 1020.63 1020.85 1021.12 1021.42 1021.76 1022.13 1022.51 1022.88 1023.22 1023.52 1023.76 1023.94 1024.03 1024.06 1024.02 1023.92 1023.78
1011.84 1012.28 1012.71 1013.13 1013.56 1014.01 1014.50 1015.01 1015.55 1016.11 1016.69 1017.25 1017.80 1018.30 1018.74 1019.13 1019.46 1019.73 1019.96 1020.15 1020.33 1020.52 1020.72 1020.95 1021.22 1021.52 1021.85 1022.20 1022.55 1022.90 1023.22 1023.49 1023.72 1023.88 1023.97 1024.00 1023.98 1023.90
1011.24 1011.73 1012.19 1012.65 1013.10 1013.56 1014.04 1014.54 1015.08 1015.64 1016.22 1016.80 1017.37 1017.91 1018.41 1018.85 1019.24 1019.57 1019.84 1020.08 1020.28 1020.47 1020.66 1020.86 1021.09 1021.33 1021.61 1021.91 1022.22 1022.53 1022.83 1023.10 1023.34 1023.54 1023.69 1023.77 1023.81 1023.80
1010.68 1011.21 1011.72 1012.19 1012.66 1013.12 1013.59 1014.09 1014.61 1015.16 1015.74 1016.32 1016.91 1017.48 1018.02 1018.52 1018.96 1019.35 1019.69 1019.97 1020.21 1020.42 1020.61 1020.79 1020.98 1021.17 1021.39 1021.62 1021.86 1022.12 1022.37 1022.62 1022.84 1023.04 1023.21 1023.33 1023.42 1023.46
1010.19 1010.75 1011.28 1011.78 1012.25 1012.71 1013.18 1013.66 1014.16 1014.69 1015.25 1015.83 1016.42 1017.01 1017.58 1018.11 1018.61 1019.05 1019.44 1019.78 1020.06 1020.30 1020.50 1020.68 1020.84 1021.00 1021.15 1021.32 1021.49 1021.68 1021.87 1022.06 1022.25 1022.43 1022.59 1022.73 1022.84 1022.92
1009.74 1010.33 1010.88 1011.39 1011.87 1012.32 1012.78 1013.24 1013.72 1014.22 1014.76 1015.32 1015.90 1016.48 1017.06 1017.63 1018.15 1018.64 1019.08 1019.46 1019.79 1020.07 1020.29 1020.48 1020.64 1020.77 1020.89 1021.00 1021.12 1021.23 1021.36 1021.49 1021.63 1021.77 1021.91 1022.04 1022.16 1022.27
1009.31 1009.90 1010.46 1010.97 1011.45 1011.91 1012.35 1012.79 1013.25 1013.73 1014.24 1014.78 1015.33 1015.91 1016.48 1017.05 1017.60 1018.12 1018.59 1019.02 1019.39 1019.71 1019.97 1020.19 1020.36 1020.49 1020.59 1020.67 1020.74 1020.80 1020.87 1020.94 1021.03 1021.13 1021.23 1021.35 1021.46 1021.57
1008.82 1009.41 1009.96 1010.47 1010.95 1011.40 1011.84 1012.28 1012.72 1013.19 1013.67 1014.18 1014.72 1015.27 1015.83 1016.40 1016.95 1017.48 1017.99 1018.45 1018.87 1019.24 1019.55 1019.80 1020.00 1020.15 1020.25 1020.32 1020.37 1020.40 1020.42 1020.45 1020.49 1020.55 1020.62 1020.71 1020.81 1020.91
1008.23 1008.79 1009.32 1009.82 1010.30 1010.76 1011.20 1011.64 1012.09 1012.54 1013.02 1013.52 1014.04 1014.57 1015.12 1015.68 1016.24 1016.79 1017.31 1017.81 1018.27 1018.69 1019.04 1019.34 1019.58 1019.76 1019.89 1019.97 1020.01 1020.03 1020.03 1020.03 1020.04 1020.06 1020.10 1020.16 1020.24 1020.33
1007.49 1008.00 1008.51 1008.99 1009.47 1009.94 1010.39 1010.85 1011.31 1011.78 1012.26 1012.76 1013.28 1013.82 1014.36 1014.92 1015.49 1016.05 1016.61 1017.14 1017.64 1018.10 1018.51 1018.86 1019.14 1019.36 1019.52 1019.62 1019.67 1019.68 1019.68 1019.66 1019.65 1019.65 1019.67 1019.70 1019.75 1019.81
1006.56 1007.03 1007.51 1007.99 1008.47 1008.94 1009.43 1009.91 1010.40 1010.90 1011.41 1011.93 1012.46 1013.01 1013.57 1014.15 1014.73 1015.32 1015.90 1016.47 1017.01 1017.52 1017.97 1018.36 1018.69 1018.95 1019.13 1019.25 1019.32 1019.34 1019.33 1019.31 1019.29 1019.27 1019.27 1019.27 1019.30 1019.34
1005.48 1005.91 1006.36 1006.83 1007.32 1007.82 1008.33 1008.85 1009.38 1009.92 1010.47 1011.02 1011.59 1012.17 1012.76 1013.36 1013.97 1014.59 1015.21 1015.82 1016.40 1016.95 1017.44 1017.87 1018.23 1018.52 1018.72 1018.86 1018.93 1018.96 1018.95 1018.93 1018.89 1018.86 1018.84 1018.83 1018.83 1018.84
1004.30 1004.70 1005.13 1005.60 1006.10 1006.63 1007.17 1007.74 1008.31 1008.89 1009.48 1010.08 1010.68 1011.30 1011.93 1012.57 1013.22 1013.88 1014.54 1015.19 1015.81 1016.39 1016.91 1017.37 1017.75 1018.05 1018.27 1018.41 1018.48 1018.51 1018.49 1018.46 1018.42 1018.38 1018.34 1018.32 1018.30 1018.28
1003.07 1003.45 1003.88 1004.36 1004.88 1005.44 1006.02 1006.62 1007.24 1007.86 1008.49 1009.13 1009.77 1010.43 1011.09 1011.77 1012.46 1013.16 1013.86 1014.54 1015.20 1015.81 1016.36 1016.84 1017.23 1017.53 1017.75 1017.88 1017.95 1017.96 1017.94 1017.90 1017.85 1017.80 1017.75 1017.72 1017.68 1017.65
1001.87 1002.26 1002.70 1003.20 1003.74 1004.33 1004.94 1005.58 1006.23 1006.88 1007.54 1008.20 1008.87 1009.56 1010.25 1010.96 1011.69 1012.42 1013.15 1013.87 1014.55 1015.19 1015.75 1016.24 1016.64 1016.94 1017.15 1017.27 1017.33 1017.33 1017.30 1017.25 1017.19 1017.14 1017.09 1017.05 1017.01 1016.96
Thickness
5746 5744 5743 5742 5741 5739 5736 5732 5727 5723 5724 5726 5726 5727 5724 5721 5717 5716 5715 5711 5710 5709 5708 5707 5707 5706 5705 5703 5702 5701 5701 5700 5700 5700 5701 5700 5700 5701
5740 5738 5736 5738 5736 5734 5731 5729 5727 5723 5720 5724 5722 5722 5719 5718 5713 5711 5710 5707 5706 5704 5703 5702 5702 5701 5699 5698 5697 5696 5696 5695 5695 5695 5696 5696 5696 5696
5735 5733 5731 5730 5730 5729 5726 5724 5722 5720 5716 5718 5718 5716 5712 5710 5708 5707 5706 5704 5703 5700 5699 5697 5696 5695 5694 5693 5691 5691 5690 5690 5690 5689 5690 5691 5691 5692
5729 5728 5726 5726 5722 5722 5720 5719 5717 5715 5712 5708 5709 5708 5705 5703 5702 5701 5702 5701 5699 5696 5695 5693 5692 5690 5689 5688 5686 5685 5684 5684 5684 5684 5685 5686 5686 5687
5725 5722 5720 5718 5716 5716 5713 5713 5712 5711 5707 5704 5702 5702 5700 5699 5697 5697 5697 5695 5695 5693 5690 5689 5687 5685 5684 5682 5681 5680 5679 5679 5679 5679 5679 5679 5680 5680
5720 5718 5716 5713 5711 5709 5708 5705 5704 5702 5700 5698 5696 5695 5693 5693 5692 5691 5691 5690 5690 5691 5687 5685 5683 5681 5679 5678 5676 5675 5674 5673 5673 5673 5673 5673 5674 5675
5715 5713 5711 5708 5705 5703 5702 5699 5697 5695 5694 5692 5690 5690 5688 5685 5685 5687 5686 5685 5685 5684 5683 5683 5681 5680 5677 5674 5672 5670 5669 5668 5668 5667 5668 5668 5668 5668
5709 5707 5706 5702 5699 5695 5692 5690 5687 5686 5686 5685 5685 5682 5679 5680 5679 5680 5679 5677 5676 5679 5676 5678 5678 5676 5675 5673 5668 5666 5664 5663 5663 5662 5662 5662 5663 5663
5704 5701 5701 5700 5695 5692 5687 5682 5680 5678 5676 5676 5677 5675 5674 5674 5672 5672 5670 5670 5669 5672 5670 5671 5672 5671 5671 5668 5664 5661 5660 5659 5658 5658 5657 5657 5657 5657
5699 5696 5693 5692 5691 5686 5684 5680 5678 5675 5672 5671 5670 5669 5668 5666 5666 5666 5665 5665 5665 5666 5664 5664 5666 5666 5667 5664 5659 5657 5655 5654 5654 5653 5652 5652 5651 5651
5694 5692 5689 5685 5681 5677 5676 5674 5672 5671 5668 5665 5663 5662 5660 5658 5658 5660 5660 5660 5661 5662 5660 5659 5661 5661 5661 5660 5656 5653 5651 5650 5649 5648 5647 5646 5646 5645
5689 5686 5682 5679 5674 5670 5670 5669 5666 5666 5665 5662 5658 5656 5656 5655 5652 5652 5654 5654 5655 5655 5656 5653 5655 5655 5653 5655 5654 5650 5648 5646 5645 5643 5642 5641 5640 5641
5685 5683 5680 5673 5668 5664 5663 5663 5661 5660 5659 5658 5657 5656 5655 5653 5652 5650 5649 5649 5648 5649 5651 5648 5648 5649 5648 5648 5649 5648 5646 5645 5642 5640 5638 5636 5634 5634
5678 5678 5675 5667 5662 5659 5657 5656 5653 5651 5655 5655 5653 5653 5652 5651 5649 5647 5644 5643 5642 5643 5642 5641 5642 5641 5642 5642 5642 5642 5641 5640 5639 5638 5636 5632 5630 5629
5671 5668 5663 5659 5656 5654 5652 5650 5648 5650 5651 5650 5649 5649 5648 5647 5644 5641 5639 5638 5637 5638 5638 5635 5635 5636 5636 5637 5637 5636 5635 5634 5634 5633 5632 5629 5628 5626
5663 5660 5655 5652 5651 5650 5649 5647 5647 5647 5647 5646 5645 5644 5643 5641 5639 5638 5636 5634 5633 5633 5632 5630 5628 5628 5629 5630 5630 5630 5629 5628 5628 5626 5625 5625 5623 5622
5656 5656 5655 5653 5650 5649 5647 5646 5644 5642 5640 5639 5638 5637 5635 5634 5633 5632 5629 5628 5627 5627 5626 5625 5623 5622 5622 5622 5623 5623 5623 5622 5621 5620 5617 5618 5618 5617
5645 5649 5649 5649 5647 5645 5644 5642 5640 5638 5636 5634 5632 5631 5629 5627 5626 5625 5624 5622 5622 5622 5621 5619 5617 5615 5615 5615 5614 5615 5616 5616 5615 5613 5612 5612 5612 5611
5640 5644 5644 5643 5641 5640 5639 5638 5636 5634 5631 5629 5627 5625 5624 5622 5619 5618 5617 5616 5615 5615 5614 5613 5612 5610 5609 5610 5609 5607 5608 5608 5608 5607 5606 5606 5605 5605
5639 5640 5639 5638 5636 5635 5634 5632 5630 5629 5625 5624 5623 5621 5619 5616 5614 5613 5612 5610 5610 5609 5608 5608 5607 5605 5604 5604 5604 5603 5600 5601 5601 5601 5600 5600 5599 5597
5636 5635 5634 5633 5631 5629 5627 5625 5623 5621 5619 5618 5617 5614 5613 5611 5610 5609 5608 5604 5602 5603 5602 5602 5601 5597 5598 5597 5597 5597 5597 5593 5593 5593 5593 5593 5593 5593
5631 5630 5629 5627 5625 5622 5620 5618 5616 5614 5613 5612 5611 5609 5608 5607 5605 5604 5603 5602 5600 5599 5598 5597 5595 5593 5592 5592 5593 5593 5592 5590 5588 5587 5586 5586 5586 5587
5626 5625 5623 5621 5618 5616 5614 5611 5610 5609 5607 5606 5605 5604 5603 5601 5600 5599 5598 5597 5596 5594 5593 5591 5590 5588 5589 5588 5588 5588 5587 5587 5586 5585 5584 5582 5579 5577